Terug naar catalogus

CZ-3A R/B

ActiefGTO
NORAD 33464·ROCKET BODY·🇨🇳 China

Gelanceerd Dec 23, 2008 vanaf Xichang Satellite Launch Center

Loading…

TLE

VerouderdSource: Space-Track

Epoch: Sep 14, 2026, 07:35 UTC

1 33464U 08066B   26257.31651975  .00000127  00000-0  10042-2 0  9998
2 33464  24.5933 190.0156 7149767   8.0890 358.9423  2.34415035150306

Volg CZ-3A R/B in realtime met AllMySat

Download on the App Store